Date String (YYYY-MM-DD hh:mm:ss) UTC,Instrument flags,absolute air pressure of the measurement (hPa),sample flow rate (lpm),inlet stack bypass flow (lpm),air temperature of the measurement (°C),ambient temperature measured by the external sensor (°C),aerosol sample conditioner tube jacket temperature (°C),OPC LED temperature (°C),internal box temperature (°C),relative humidity of the measurement (%),span deviation,mass concentration of particles derived from Lorenz-Mie calculation of OPC scattering (μg/m³),mass concentration of particles derived from Lorenz-Mie calculation of OPC scattering (μg/m³),mass concentration of particles derived from Lorenz-Mie calculation of OPC scattering (μg/m³)
DateTimeUTC,F1_M11,P_M11,Q1_M11,Q2_M11,T1_M11,T2_M11,T3_M11,T4_M11,T5_M11,U1_M11,ZSPAN_M11,X2_M11,X0_M11,X1_M11
2023-06-24 02:00:00,SystemResetWarning,0825.1,5.00,000.00,032.4,027.7,000.0,040.1,032.0,34.0,0004.0,0007.49,0012.28,0006.78
2023-06-24 02:01:00,SystemResetWarning,0825.1,5.00,000.00,032.4,027.9,000.0,040.2,032.0,33.8,0004.1,0007.47,0012.88,0006.77
2023-06-24 02:02:00,SystemResetWarning,0825.1,5.01,000.00,032.4,028.1,000.0,040.2,032.1,33.7,0003.9,0007.46,0013.05,0006.76
2023-06-24 02:03:00,SystemResetWarning,0825.1,4.99,000.00,032.5,026.8,000.0,040.2,032.2,33.8,0003.8,0007.44,0013.68,0006.75
2023-06-24 02:04:00,SystemResetWarning,0825.1,5.00,000.00,032.5,025.1,000.0,040.1,032.1,34.1,0003.9,0007.44,0013.95,0006.74
2023-06-24 02:05:00,SystemResetWarning,0825.1,5.02,000.00,032.4,024.8,000.0,040.1,032.0,34.6,0003.9,0007.41,0013.94,0006.72
2023-06-24 02:06:00,SystemResetWarning,0825.0,4.97,000.00,032.2,025.0,000.0,040.1,031.6,35.2,0003.8,0007.43,0013.97,0006.73
2023-06-24 02:07:00,SystemResetWarning,0825.0,5.03,000.00,032.1,025.5,000.0,040.1,031.5,35.5,0003.7,0007.43,0013.62,0006.72
2023-06-24 02:08:00,SystemResetWarning,0825.0,5.00,000.00,032.3,026.0,000.0,040.1,031.7,35.1,0003.2,0007.42,0013.34,0006.72
2023-06-24 02:09:00,SystemResetWarning,0825.1,4.98,000.00,032.5,026.5,000.0,040.1,031.9,34.7,0002.7,0007.39,0013.08,0006.73
2023-06-24 02:10:00,SystemResetWarning,0825.1,4.99,000.00,032.7,027.0,000.0,040.1,031.9,34.1,0002.8,0007.38,0013.37,0006.72
2023-06-24 02:11:00,SystemResetWarning,0825.1,5.01,000.00,032.7,027.3,000.0,040.1,032.0,32.7,0003.1,0007.38,0013.64,0006.72
2023-06-24 02:12:00,SystemResetWarning,0825.1,5.01,000.00,032.7,027.7,000.0,040.2,032.0,33.0,0003.0,0007.39,0013.32,0006.72
2023-06-24 02:13:00,SystemResetWarning,0825.1,4.99,000.00,032.7,027.9,000.0,040.3,032.1,31.5,0003.2,0007.38,0013.18,0006.72
2023-06-24 02:14:00,SystemResetWarning,0825.1,4.99,000.00,032.7,028.2,000.0,040.3,032.1,23.4,0003.2,0007.39,0012.84,0006.70
2023-06-24 02:15:00,SystemResetWarning,0825.1,5.00,000.00,032.8,028.1,000.0,040.4,032.2,28.9,0003.1,0007.37,0012.39,0006.69
2023-06-24 02:16:00,SystemResetWarning,0825.1,5.00,000.00,032.8,026.5,000.0,040.3,032.1,31.7,0003.3,0007.36,0012.54,0006.68
2023-06-24 02:17:00,SystemResetWarning,0825.1,5.00,000.00,032.8,025.0,000.0,040.3,032.1,32.0,0003.3,0007.33,0012.74,0006.65
2023-06-24 02:18:00,SystemResetWarning,0825.1,5.01,000.00,032.7,024.8,000.0,040.3,032.0,32.3,0003.4,0007.21,0013.81,0006.52
2023-06-24 02:19:00,SystemResetWarning,0825.1,5.01,000.00,032.5,025.1,000.0,040.3,031.6,32.0,0003.7,0007.11,0014.00,0006.44
2023-06-24 02:20:00,SystemResetWarning,0825.0,5.00,000.00,032.3,025.6,000.0,040.3,031.5,30.1,0003.8,0007.07,0014.36,0006.40
2023-06-24 02:21:00,SystemResetWarning,0825.1,5.00,000.00,032.2,026.1,000.0,040.2,031.6,24.1,0004.0,0007.03,0014.43,0006.37
2023-06-24 02:22:00,SystemResetWarning,0825.1,5.00,000.00,032.1,026.6,000.0,040.2,031.6,27.4,0003.6,0007.01,0014.13,0006.35
2023-06-24 02:23:00,SystemResetWarning,0825.1,4.99,000.00,032.0,027.0,000.0,040.2,031.7,22.2,0003.5,0007.00,0014.19,0006.34
2023-06-24 02:24:00,SystemResetWarning,0825.1,5.00,000.00,032.0,027.4,000.0,040.2,031.7,19.3,0003.6,0006.92,0014.09,0006.31
2023-06-24 02:25:00,SystemResetWarning,0825.1,5.01,000.00,031.9,027.7,000.0,040.2,031.8,18.1,0003.9,0006.79,0014.07,0006.20
2023-06-24 02:26:00,SystemResetWarning,0825.1,5.00,000.00,031.9,027.9,000.0,040.2,031.8,15.1,0003.6,0006.72,0013.98,0006.12
2023-06-24 02:27:00,SystemResetWarning,0825.1,4.99,000.00,031.9,028.1,000.0,040.1,031.9,15.4,0003.3,0006.64,0014.05,0006.01
2023-06-24 02:28:00,SystemResetWarning,0825.1,4.99,000.00,031.9,028.3,000.0,040.1,032.0,15.4,0003.3,0006.42,0013.97,0005.80
2023-06-24 02:29:00,SystemResetWarning,0825.0,5.00,000.00,031.9,028.0,000.0,040.1,032.0,15.0,0003.5,0006.26,0013.08,0005.65
2023-06-24 02:30:00,SystemResetWarning,0825.0,5.00,000.00,031.9,026.1,000.0,040.0,032.0,13.6,0003.3,0006.12,0012.69,0005.50
2023-06-24 02:31:00,SystemResetWarning,0825.0,5.00,000.00,031.8,024.7,000.0,039.9,031.9,13.6,0003.3,0005.92,0012.68,0005.28
2023-06-24 02:32:00,SystemResetWarning,0825.0,5.00,000.00,031.7,024.5,000.0,039.8,031.6,13.5,0002.5,0005.66,0013.16,0005.02
2023-06-24 02:33:00,SystemResetWarning,0825.0,5.02,000.00,031.5,024.9,000.0,039.8,031.3,12.6,0000.0,0005.39,0012.57,0004.74
2023-06-24 02:34:00,SystemResetWarning,0825.0,5.00,000.00,031.3,025.4,000.0,039.7,031.3,11.0,0000.0,0005.11,0012.49,0004.45
2023-06-24 02:35:00,SystemResetWarning,0825.0,5.00,000.00,031.2,026.0,000.0,039.7,031.3,11.8,0000.0,0004.91,0012.85,0004.18
2023-06-24 02:36:00,SystemResetWarning,0825.0,5.00,000.00,031.2,026.4,000.0,039.6,031.4,11.8,0000.0,0004.75,0012.94,0003.98
2023-06-24 02:37:00,SystemResetWarning,0825.0,4.99,000.00,031.1,026.9,000.0,039.6,031.4,11.8,0000.0,0004.63,0013.94,0003.80
2023-06-24 02:38:00,SystemResetWarning,0825.1,5.01,000.00,031.1,027.2,000.0,039.6,031.5,12.0,0000.0,0004.41,0013.69,0003.61
2023-06-24 02:39:00,SystemResetWarning,0825.1,5.01,000.00,031.1,027.5,000.0,039.6,031.5,12.2,0000.0,0004.31,0013.34,0003.49
2023-06-24 02:40:00,SystemResetWarning,0825.1,5.01,000.00,031.1,027.8,000.0,039.5,031.6,11.3,0000.0,0004.29,0013.06,0003.41
2023-06-24 02:41:00,SystemResetWarning,0825.1,4.99,000.00,031.0,028.0,000.0,039.5,031.6,10.7,0000.0,0004.25,0013.85,0003.35
2023-06-24 02:42:00,SystemResetWarning,0825.1,5.00,000.00,031.0,028.1,000.0,039.5,031.7,10.1,0000.0,0004.19,0013.66,0003.30
2023-06-24 02:43:00,SystemResetWarning,0825.1,4.99,000.00,031.0,028.3,000.0,039.5,031.7,9.4,0000.0,0004.14,0012.54,0003.25
2023-06-24 02:44:00,SystemResetWarning,0825.1,5.00,000.00,031.0,028.3,000.0,039.4,031.8,8.5,0000.0,0004.12,0012.98,0003.20
2023-06-24 02:45:00,SystemResetWarning,0825.1,5.00,000.00,031.0,026.9,000.0,039.4,031.8,9.1,0000.0,0004.12,0012.95,0003.18
2023-06-24 02:46:00,SystemResetWarning,0825.1,5.00,000.00,031.0,025.4,000.0,039.3,031.8,9.9,0000.0,0004.06,0012.87,0003.15
2023-06-24 02:47:00,SystemResetWarning,0825.1,5.00,000.00,030.9,025.1,000.0,039.2,031.5,10.4,0000.0,0004.00,0013.47,0003.11
2023-06-24 02:48:00,SystemResetWarning,0825.1,5.01,000.00,030.7,025.4,000.0,039.2,031.2,10.4,0000.0,0003.97,0013.43,0003.05
2023-06-24 02:49:00,SystemResetWarning,0825.1,5.00,000.00,030.7,025.9,000.0,039.2,031.2,10.3,0000.0,0003.95,0013.74,0003.02
2023-06-24 02:50:00,SystemResetWarning,0825.1,5.00,000.00,030.6,026.3,000.0,039.2,031.2,9.3,0000.0,0003.99,0014.66,0002.99
2023-06-24 02:51:00,SystemResetWarning,0825.1,5.00,000.00,030.6,026.8,000.0,039.1,031.3,9.7,0000.0,0003.98,0015.72,0002.98
2023-06-24 02:52:00,SystemResetWarning,0825.1,5.00,000.00,030.6,027.1,000.0,039.1,031.3,9.9,0000.0,0003.95,0015.42,0002.98
2023-06-24 02:53:00,SystemResetWarning,0825.1,5.00,000.00,030.5,027.4,000.0,039.1,031.4,10.1,0000.0,0003.97,0015.32,0002.98
2023-06-24 02:54:00,SystemResetWarning,0825.1,5.00,000.00,030.5,027.7,000.0,039.1,031.4,9.9,0000.0,0004.00,0016.80,0003.00
2023-06-24 02:55:00,SystemResetWarning,0825.2,5.00,000.00,030.5,027.9,000.0,039.1,031.5,10.0,0000.0,0004.01,0018.88,0003.00
2023-06-24 02:56:00,SystemResetWarning,0825.2,5.00,000.00,030.5,028.1,000.0,039.1,031.5,10.3,0000.0,0004.00,0019.31,0003.00
2023-06-24 02:57:00,SystemResetWarning,0825.2,4.99,000.00,030.6,028.2,000.0,039.0,031.6,10.4,0000.0,0003.99,0019.01,0002.99
2023-06-24 02:58:00,SystemResetWarning,0825.2,4.98,000.00,030.6,027.6,000.0,039.0,031.7,10.1,0000.0,0004.01,0018.49,0003.02
2023-06-24 02:59:00,SystemResetWarning,0825.1,5.00,000.00,030.5,025.4,000.0,038.9,031.5,10.3,0000.0,0004.03,0018.22,0003.04
